Regional Weather Roundup
Issued by NWS Wakefield, VA

Home | Current Version | Previous Version | Graphics & Text | Print | Product List | Glossary On
Versions: 1 2 3 4 5 6 7 8 9 10 11 12 13 14 15 16 17 18 19 20 21 22 23 24 25 26 27 28 29 30 31 32 33 34 35 36 37 38 39 40 41 42 43 44 45 46 47 48 49 50
000
ASUS41 KAKQ 261215
RWRAKQ

REGIONAL WEATHER ROUNDUP
NATIONAL WEATHER SERVICE WAKEFIELD VA
800 AM EDT FRI AUG 26 2016

Note: "fair" indicates few or no clouds below 12,000 feet with no
significant weather and/or obstructions to visibility. * = Denotes
station may not report precipitation (e.g., rain,snow,etc.),
thunder or fog.

VAZ042-051-052>054-056-261300-
NORTHERN VIRGINIA

CITY           SKY/WX    TMP DP  RH WIND       PRES   REMARKS
WASH NATIONAL  MOSUNNY   80  75  84 S5        30.06S
DULLES         MOSUNNY   81  73  76 NW3       30.07S
FORT BELVOIR   SUNNY     75  74  96 CALM      30.06R
QUANTICO       SUNNY     77  73  87 NW5       30.07S
FREDERICKSBRG* SUNNY     74  74 100 CALM      30.06S
STAFFORD*      SUNNY     73  72  97 CALM      30.11S FOG
WARRENTON      SUNNY     75  71  87 CALM      30.07S HAZE
CULPEPER*      PTSUNNY   75  75 100 CALM      30.09R
MANASSAS*      SUNNY     73  73 100 CALM      30.08R
LEESBURG*      SUNNY     81  77  89 W8        30.08S
WINCHESTER     MOSUNNY   77  72  83 CALM      30.10S
FRONT ROYAL*   FAIR      73  72  94 S6        30.10R
LURAY*         FAIR     N/A N/A N/A CALM      30.12R HAZE
$$

VAZ048-049-060>072-079>083-261300-
CENTRAL AND SOUTH CENTRAL VIRGINIA

CITY           SKY/WX    TMP DP  RH WIND       PRES   REMARKS
RICHMOND       PTSUNNY   75  70  84 SW3       30.07S
CHESTERFIELD*  FAIR      75  61  60 CALM      30.09R
PETERSBURG*    MOSUNNY  N/A N/A N/A CALM      30.08R
HANOVER        MOSUNNY   76  71  85 CALM      30.09R
TAPPAHANNOCK*  MOSUNNY   75  75 100 CALM      30.08R
QUINTON*       FAIR      74  72  92 CALM      30.07S
CHARLOTTSVILLE SUNNY     76  72  87 N3        30.09R
GORDONSVILLE*  FAIR      73  73 100 SW5       30.08R
ORANGE*          N/A     79  77  94 CALM      30.10R
LOUISA*        SUNNY     79  77  94 W3        30.08R FOG
BUMPASS*       FAIR      73  73 100 CALM      30.08S
FARMVILLE*     SUNNY    N/A N/A N/A CALM      30.07S HAZE
CREWE*         FAIR      74  74 100 CALM      30.08S
FORT PICKETT*  FAIR      74  74  98 W3        30.09R
CHASE CITY*    FAIR      74  73  94 CALM      30.09S
CLARKSVILLE*   FAIR      73  73 100 CALM      30.08F
SOUTH HILL*    SUNNY     73  71  96 S3        30.14S
LAWRENCEVILLE* FAIR      74  72  92 SW3       30.08S
EMPORIA*       SUNNY     72  70  94 CALM      30.09S
$$

VAZ088>098-261300-
SOUTHEAST VIRGINIA

CITY           SKY/WX    TMP DP  RH WIND       PRES   REMARKS
NORFOLK        MOSUNNY   76  69  79 SW10      30.08R
VIRGINIA BEACH PTSUNNY   80  68  66 SW8       30.08R
NORFOLK NAVAL  MOSUNNY   77  69  76 SW8       30.09S
WEST POINT*    PTSUNNY   76  71  83 SW5       30.09R
SALUDA*        FAIR      76  72  89 SW3       30.07R
NEWPORT NEWS   SUNNY     77  70  79 SW9       30.08R
LANGLEY AFB    MOSUNNY   77  70  80 SW10      30.07S
FORT EUSTIS    SUNNY     77  69  77 SW5       30.05S
WILLIAMSBURG*  SUNNY     77  72  83 CALM      30.08S
HR EXEC AP*    FAIR      73  68  83 SW5       30.11R
FRANKLIN*      SUNNY     74  68  82 SW5       30.08F
US460-WAKEFLD  SUNNY     75  69  81 CALM      30.07F
$$

VAZ020-022-025-037-045-261300-
WEST CENTRAL AND SOUTHWEST VIRGINIA

CITY           SKY/WX    TMP DP  RH WIND       PRES   REMARKS
STAUNTON*      SUNNY     71  69  95 CALM      30.16R FOG
WAYNESBORO*    FAIR      76  70  81 SW5       30.15R
HOT SPRINGS VA CLOUDY    68  68 100 W8        30.27S FOG
LYNCHBURG      SUNNY     71  71 100 CALM      30.13R
DANVILLE       SUNNY     74  73  97 CALM      30.10S
SOUTH BOSTON*  FAIR      73  71  95 CALM      30.09S
MARTINSVILLE   SUNNY     69  68  96 CALM      30.16S
ROANOKE        SUNNY     76  71  85 CALM      30.16R
BLACKSBURG     SUNNY     69  69 100 CALM      30.24R FOG
DUBLIN*        SUNNY     71  71 100 CALM      30.22S
MARION*        FOG       66  65  96 CALM      30.27R VSB<1/4
HILLSVILLE*    SUNNY     68  68 100 SW3       30.24R
RICHLANDS*     FOG       66  66 100 CALM      30.26S VSB<1/4
WISE*          MOSUNNY   70  70 100 CALM      30.27S
ABINGDON*      SUNNY     70  70 100 CALM      30.23S FOG
$$

MDZ021>025-VAZ099-100-261300-
SOUTHERN MARYLAND AND THE DELMARVA PENINSULA

CITY           SKY/WX    TMP DP  RH WIND       PRES   REMARKS
PATUXENT RIVER CLOUDY    78  72  81 SW7       30.05R
BAY BRIDGE APT SUNNY     79  75  89 W3        30.05R
LEONARDTOWN    SUNNY     77  72  83 W5        30.07S
DOVER          MOSUNNY   77  77 100 SW9       30.02S
GEORGETOWN     SUNNY     77  73  87 SW6       30.05S
EASTON         SUNNY     81  79  94 CALM      30.09R
CAMBRIDGE      SUNNY     75  72  88 CALM      30.05R
SALISBURY      SUNNY     77  73  87 SW5       30.05S
OCEAN CITY     SUNNY     79  72  79 SW7       30.05S
WALLOPS ISLAND SUNNY     77  69  76 S7        30.07S
ACCOMACK*      SUNNY     79  71  77 SW6       30.07S
$$

NCZ012>017-030>032-261300-
NORTH CENTRAL AND EASTERN NORTH CAROLINA

CITY           SKY/WX    TMP DP  RH WIND       PRES   REMARKS
ROANOKE RAPIDS FAIR      73  70  88 SW5       30.08S
RALEIGH        MOSUNNY   76  71  85 SW6       30.10S
ELIZABETH CITY SUNNY     75  71  87 SW6       30.10R
AHOSKIE*       SUNNY     73  69  88 S3        30.09S
EDENTON*       SUNNY     79  68  70 SW7       30.11S
CURRITUCK*       N/A     76  73  91 SW3       30.10S
KILL DEVIL HLS SUNNY     79  74  86 CALM      30.10S
MANTEO         MOSUNNY   78  71  80 SW5       30.11S
CAPE HATTERAS  CLOUDY    80  69  69 CALM      30.12R
TARBORO*       FAIR      76  71  85 S6        30.10S
GOLDSBORO      MOSUNNY   74  74 100 S5        30.09S
WASHINGTON     PTSUNNY   74  68  80 SW5       30.11S
GREENVILLE     MOSUNNY   73  70  88 SW3       30.12R
NEW BERN       MOSUNNY   74  70  87 CALM      30.13R
WILMINGTON     MOSUNNY   75  71  87 CALM      30.12R
$$

VAZ048-261300-
ELSEWHERE

CITY           SKY/WX    TMP DP  RH WIND       PRES   REMARKS
HARRISBURG PA  MOSUNNY   78  76  93 VRB3      30.05R
BALTIMORE      MOSUNNY   80  74  81 CALM      30.05R
ANNAPOLIS      SUNNY     81  74  79 W6        30.04S
ANDREWS AFB    SUNNY     80  73  81 W5        30.06R
PHILADELPHIA   CLOUDY    77  73  87 SW8       30.02R
HENDERSON NC   SUNNY     72  68  88 SW3       30.09S
GREENSBORO     MOSUNNY   78  72  81 NW3       30.12S
ROCKY MOUNT    SUNNY     75  72  90 SW6       30.09S
$$

VAZ100-261300-
MARINE

STATION/POSITION TIME  TEMP    WIND        PRES    WAVE   SWELL
                       AIR SEA DIR/SP/G            HT/PER HT/PER
                 (UTC) (F)     (DEG/KT/KT) (MB)    (FT/S) (FT/S)
BRANDYWINE LGT   1100   75     240/ 16/ 17   N/A
CAPE MAY NJ      1100   75 75  180/  5/  8 1016.5R
LEWES DE         1100   76 73  230/  8/ 11 1016.8R
OCEAN-CITY-INLET 1100   77 73  240/  7/ 10 1017.9R
WACHAPREAGUE VA  1100   76 79  230/  4/  5 1018.2R
THOMAS POINT MD  1200   79 81  290/ 10/ 11 1018.7R
GOOSES REEF MD   1100   80 82  250/ 12/ 16 1017.5R   1/ 3
COVE POINT MD    1100   78     270/ 12/ 14 1017.8R
SOLOMONS ISLAND  1100   78 83  260/  5/  7   N/A
BISHOPS HEAD MD  1100   80 80  240/  9/ 11 1017.8R
PINEY POINT MD   1100          280/  5/  6   N/A
POTOMAC MD       1100   79 82  270/ 12/ 14 1016.6R   1/ 2
CAMBRIDGE MD     1100   77 83  190/  3/  5 1016.4R
LEWISETTA VA     1100   77 82  260/  6/  8 1017.3R
RAPPAHANNOCK LGT 1100          220/ 12/ 14 1018.6R
STINGRAY PT      1100   78 83  180/ 10/ 12 1018.3R   1/ 2
YORK RVR RNG VA  1100   77     240/ 11/ 12 1017.5R
YORKTOWN VA      1100   76 82  220/  4/  7 1017.6R
JAMESTOWN VA     1100   75 83  190/  4/  6   N/A     0
DOMINION TERM VA 1100   77     240/  7/  9 1018.5R
KIPTOPEKE VA     1100      79  240/ 11/ 12   N/A
CHES BAY BRIDGE  1100   77 78  210/ 12/ 15 1018.1R
CAPE HENRY VA    1100   75     210/  8/ 12   N/A
WILLOUBY STN VA  1100   76     220/ 12/ 13   N/A
CAPE HENRY BUOY  1112      78                N/A     2/ 9
1ST LANDING BUOY 1100   77 78  240/ 12/ 14 1018.1R   2/ 3
CAPE CHARLES BUO 1126      77                N/A     2/ 9
OFFSHORE WE BUOY 1121      80                N/A     3/ 9
64NM E OF VA BCH 1150   80 80  240/ 12/ 14 1019.3R   3/ 8   2/ 8
DUCK PIER NC     1100   78 79  230/  8/ 10 1018.6R
44100 DUCK FRF   1105      78                N/A     2/ 8
44056 DUCK FRF   1111      78                N/A     2/ 8
OREGON INLET NC  1100   79 81  250/  6/  8 1019.5R
HATTERAS NC      1100   80 81  270/  5/  5 1019.2R
DIAMOND SHLS NC  1150   82 84  300/  4/  6 1019.8R   3/ 9   3/ 9
CAPE LOOKOUT NC  1200   81     340/  2/  3 1019.4R
$$



USA.gov is the U.S. government's official web portal to all federal, state and local government web resources and services.